PSLV R/B, 41878

Orbit data source: Space-Track

PSLV R/B, 41878 is space debris in SSO originally from a launch on Wed, 07 Dec 2016 UTC launched from the Sirharikota (SRI). Debris objects in space refer to the collection of defunct objects orbiting the Earth. Examples of debris include non-operational satellites, rocket bodies, and fragments generated from explosions, collisions, or faulty payload assembly.

Loading next visibility...
Identifier
41878, 2016-074B
Orbit
SSO
Country
Flag of ININ / IND
Related business
Manufacturer
VSSC/LPSC
Mission
Spacecraft
Bus & Motor
PS-4, Unknown motor
Mass
920 kg wet, 920 kg dry
Launch date (UTC)
2016-12-07 (10 years ago)
Launch vehicle
Unknown
Launch site
Sirharikota (SRI)
Object type
Payload
Rocket body
Debris
Shape & HBR
Cyl + Cyl + 2 Nozzle, 1.5 m
Radar Cross Section
3.727 m², Large (>1 m²)

Expand to show TLE details & history
Last TLE update: 2 days ago

TLE from 2 days ago
0 PSLV R/B
1 41878U 16074B   26171.23462836  .00000058  00000-0  44033-4 0  9998
2 41878  98.6302 259.5952 0002580 170.5176 189.6052 14.24164163495402
Epoch: 2026-06-20T05:37Z
TLE epoch observation values (Epoch: 2026-06-20T05:37:51.890Z)
Latitude
-0.00003°
Longitude
-93.32318°
Altitude
816.056 km
Speed
7.444 km/s
True Right ascension
17h 18m 22s
True Declination
0° 00' 00"
Sunlit
Object was in full shadow at epoch
Visualization orbit readout
Latitude
Unknown
Longitude
Unknown
Altitude
Unknown
Speed
Unknown
Apparent Right ascension
Unknown
Apparent Declination
Unknown
Sunlit
N/A
Visualization observer readout
Local Sidereal Time
02:13:21
Azimuth
Unknown
Elevation
Unknown
Doppler factor
Unknown
Orbital elements
Apogee altitude
810.308 km
Perigee altitude
806.599 km
Semi-major axis
7,186.59 km
Eccentricity
0.00026
Inclination
98.6302°
RAAN
259.5952°
Arg. of periapsis
170.5176°
True anomaly
189.60027°
Mean anomaly
189.6052°
Eccentric anomaly
189.60273°
Mean motion
3.56253 °/min
Orbital period
101.05 mins
BSTAR
0.000044033
Loading maneuver chart data...
Computing Atmospheric mass density...
Loading historical data...
Loading historical data...
Loading historical data...
Loading historical data...
Loading historical data...
Loading historical data...
Loading historical data...
Other satellites on launch #74 in the year 2016 (2016-12-07 UTC)

Documentation

Showing up to 5 results
|